Weather History for Spokane Fairchild, WA

Change the Weather History Date:

Sunday, June 9, 2013

  Actual Average Record
Temperature  
Mean Temperature 61 °F -  
Max Temperature 73 °F 67 °F 77 °F (1997)
Min Temperature 49 °F 46 °F 37 °F (2012)
Degree Days  
Heating Degree Days 4    
Growing Degree Days 11 (Base 50)    
Moisture  
Dew Point 36 °F    
Average Humidity 40    
Maximum Humidity 74    
Minimum Humidity 19    
Precipitation  
Precipitation 0.00 in - - ()
Sea Level Pressure  
Sea Level Pressure 29.90 in    
Wind  
Wind Speed 11 mph (SSW)    
Max Wind Speed 16 mph    
Max Gust Speed 26 mph    
Visibility 10 miles    
Events      
Averages and records for this station are not official NWS values.
T = Trace of Precipitation, MM = Missing Value Source: NWS Daily Summary

Daily Weather History Graph

Daily Weather History Graph

Search for Another Location

Airport:

Trip Planner

Search our weather history database for the weather conditions in past years. The results will help you decide how hot, cold, wet, or windy it might be!

Date:

Astronomy

Jun. 09, 2013 Rise Set
Actual Time 4:53 AM PDT 8:47 PM PDT
Civil Twilight 4:12 AM PDT 9:27 PM PDT
Nautical Twilight 3:17 AM PDT 10:22 PM PDT
Astronomical Twilight 1:53 AM PDT 11:48 PM PDT
Moon 5:58 AM PDT (6/9) 9:31 PM PDT (6/9)
Length of Visible Light 17h 14m
Length of Day
15h 53m
New Moon, 1% of the Moon is Illuminated
Jun 9
New Moon
Jun 16
First Quarter
Jun 23
Full
Jun 29
Last Quarter
Jul 8
New

Hourly Weather History & Observations

Time (PDT) Temp. Dew Point Humidity Pressure Visibility Wind Dir Wind Speed Gust Speed Precip Events Conditions
12:58 AM 55.4 °F 42.1 °F 61% 29.90 in 10.0 mi SSW 8.1 mph - N/A   Clear
1:58 AM 52.9 °F 42.8 °F 69% 29.89 in 10.0 mi SSW 8.1 mph - N/A   Clear
2:58 AM 52.2 °F 42.4 °F 69% 29.89 in 10.0 mi SSE 8.1 mph - N/A   Clear
3:58 AM 50.0 °F 42.1 °F 74% 29.89 in 10.0 mi South 12.7 mph - N/A   Clear
4:58 AM 49.3 °F 41.4 °F 74% 29.90 in 10.0 mi South 11.5 mph - N/A   Clear
5:58 AM 50.4 °F 41.0 °F 70% 29.90 in 10.0 mi South 12.7 mph - N/A   Clear
6:58 AM 52.9 °F 41.2 °F 64% 29.90 in 10.0 mi SSW 9.2 mph - N/A   Clear
7:58 AM 57.0 °F 41.4 °F 56% 29.91 in 10.0 mi SSW 15.0 mph - N/A   Clear
8:58 AM 61.2 °F 41.7 °F 49% 29.91 in 10.0 mi SSW 11.5 mph - N/A   Clear
9:58 AM 64.8 °F 40.3 °F 41% 29.91 in 10.0 mi SSW 16.1 mph 20.7 mph N/A   Clear
10:58 AM 67.5 °F 36.3 °F 32% 29.92 in 10.0 mi SSW 10.4 mph 23.0 mph N/A   Clear
11:58 AM 69.6 °F 34.2 °F 27% 29.92 in 10.0 mi WSW 15.0 mph 21.9 mph N/A   Clear
12:27 PM 69.8 °F 32.0 °F 25% 29.94 in 10.0 mi WSW 15.0 mph - N/A   Clear
12:58 PM 70.2 °F 32.0 °F 24% 29.93 in 10.0 mi SW 13.8 mph 26.5 mph N/A   Clear
1:46 PM 71.6 °F 32.0 °F 23% 29.93 in 10.0 mi SW 16.1 mph 21.9 mph N/A   Clear
1:58 PM 71.4 °F 31.5 °F 23% 29.92 in 10.0 mi SW 15.0 mph 21.9 mph N/A   Clear
2:32 PM 71.6 °F 32.0 °F 23% 29.92 in 10.0 mi WSW 15.0 mph 21.9 mph N/A   Clear
2:49 PM 71.6 °F 32.0 °F 23% 29.92 in 10.0 mi SSW 16.1 mph - N/A   Clear
2:58 PM 73.2 °F 32.0 °F 22% 29.91 in 10.0 mi WSW 12.7 mph 23.0 mph N/A   Clear
3:58 PM 73.0 °F 30.6 °F 21% 29.89 in 10.0 mi SSW 12.7 mph 17.3 mph N/A   Clear
4:12 PM 73.4 °F 28.4 °F 19% 29.90 in 10.0 mi SSW 12.7 mph 21.9 mph N/A   Clear
4:58 PM 73.4 °F 30.4 °F 20% 29.88 in 10.0 mi SW 12.7 mph - N/A   Clear
5:58 PM 73.0 °F 29.7 °F 20% 29.87 in 10.0 mi SW 11.5 mph - N/A   Clear
6:58 PM 71.8 °F 32.9 °F 24% 29.86 in 10.0 mi SSW 9.2 mph - N/A   Clear
7:58 PM 68.0 °F 35.2 °F 30% 29.85 in 10.0 mi South 8.1 mph - N/A   Clear
8:58 PM 62.6 °F 35.6 °F 37% 29.85 in 10.0 mi South 6.9 mph - N/A   Clear
9:58 PM 59.0 °F 34.7 °F 40% 29.85 in 10.0 mi South 5.8 mph - N/A   Clear
10:58 PM 56.1 °F 34.2 °F 44% 29.86 in 10.0 mi WSW 5.8 mph - N/A   Clear
11:58 PM 52.0 °F 34.2 °F 51% 29.85 in 10.0 mi SSW 2.3 mph - N/A   Clear